| time (UTC) | temp F | wind direction | speed MPH | gust MPH | rain 1hr in | rain 24hr in | rain mn in | humidity % | barometer mb |
| 20260504023615 | 54 | 27 | 3.0 | 5.0 | 0.00 | 0.00 | 0.00 | 38 | 1012.7 |
| 20260504023111 | 54 | 359 | 4.0 | 7.0 | 0.00 | 0.00 | 0.00 | 39 | 1012.4 |
| 20260504022608 | 54 | 23 | 4.0 | 6.0 | 0.00 | 0.00 | 0.00 | 39 | 1012.7 |
| 20260504022103 | 54 | 63 | 2.0 | 3.0 | 0.00 | 0.00 | 0.00 | 39 | 1012.7 |
| 20260504021602 | 54 | 32 | 4.0 | 5.0 | 0.00 | 0.00 | 0.00 | 40 | 1012.7 |
| 20260504021058 | 55 | 19 | 7.0 | 9.0 | 0.00 | 0.00 | 0.00 | 39 | 1012.7 |
| 20260504020555 | 55 | 32 | 7.0 | 9.0 | 0.00 | 0.00 | 0.00 | 40 | 1012.7 |
| 20260504020051 | 55 | 34 | 6.0 | 10.0 | 0.00 | 0.00 | 0.00 | 39 | 1012.7 |
| 20260504015548 | 55 | 44 | 5.0 | 7.0 | 0.00 | 0.00 | 0.00 | 39 | 1012.7 |
| 20260504015044 | 55 | 3 | 8.0 | 9.0 | 0.00 | 0.00 | 0.00 | 39 | 1012.7 |
| 20260504014540 | 56 | 359 | 8.0 | 10.0 | 0.00 | 0.00 | 0.00 | 39 | 1012.7 |
| 20260504014038 | 56 | 28 | 9.0 | 13.0 | 0.00 | 0.00 | 0.00 | 38 | 1012.7 |
| 20260504013535 | 56 | 352 | 6.0 | 8.0 | 0.00 | 0.00 | 0.00 | 37 | 1012.7 |
| 20260504013032 | 56 | 70 | 5.0 | 7.0 | 0.00 | 0.00 | 0.00 | 37 | 1012.4 |
| 20260504012530 | 56 | 7 | 8.0 | 10.0 | 0.00 | 0.00 | 0.00 | 37 | 1012.4 |
| 20260504012027 | 56 | 79 | 5.0 | 7.0 | 0.00 | 0.00 | 0.00 | 37 | 1012.4 |
| 20260504011524 | 57 | 337 | 5.0 | 7.0 | 0.00 | 0.00 | 0.00 | 37 | 1012.1 |
| 20260504011020 | 57 | 78 | 6.0 | 8.0 | 0.00 | 0.00 | 0.00 | 37 | 1012.1 |
| 20260504010515 | 57 | 13 | 5.0 | 7.0 | 0.00 | 0.00 | 0.00 | 37 | 1012.1 |
| 20260504010012 | 57 | 36 | 3.0 | 5.0 | 0.00 | 0.00 | 0.00 | 38 | 1012.1 |
| 20260504005509 | 57 | 2 | 8.0 | 9.0 | 0.00 | 0.00 | 0.00 | 38 | 1012.1 |
| 20260504005006 | 57 | 6 | 3.0 | 6.0 | 0.00 | 0.00 | 0.00 | 37 | 1012.1 |
| 20260504004504 | 57 | 31 | 3.0 | 5.0 | 0.00 | 0.00 | 0.00 | 38 | 1012.1 |
| 20260504004000 | 57 | 355 | 3.0 | 5.0 | 0.00 | 0.00 | 0.00 | 38 | 1012.1 |
| 20260504003456 | 57 | 330 | 9.0 | 13.0 | 0.00 | 0.00 | 0.00 | 37 | 1012.1 |
| 20260504002954 | 57 | 14 | 5.0 | 7.0 | 0.00 | 0.00 | 0.00 | 38 | 1011.7 |
| 20260504002450 | 57 | 53 | 6.0 | 8.0 | 0.00 | 0.00 | 0.00 | 37 | 1011.4 |
| 20260504001948 | 57 | 22 | 5.0 | 9.0 | 0.00 | 0.00 | 0.00 | 38 | 1011.7 |
| 20260504001445 | 57 | 21 | 4.0 | 6.0 | 0.00 | 0.00 | 0.00 | 38 | 1011.4 |
| 20260504000942 | 58 | 38 | 6.0 | 7.0 | 0.00 | 0.00 | 0.00 | 38 | 1011.7 |
| 20260504000439 | 58 | 38 | 5.0 | 8.0 | 0.00 | 0.00 | 0.00 | 38 | 1011.4 |
| 20260503235936 | 58 | 44 | 4.0 | 6.0 | 0.00 | 0.00 | 0.00 | 38 | 1011.4 |
| 20260503235434 | 58 | 9 | 4.0 | 8.0 | 0.00 | 0.00 | 0.00 | 38 | 1011.4 |
| 20260503234931 | 58 | 25 | 3.0 | 3.0 | 0.00 | 0.00 | 0.00 | 37 | 1011.7 |
| 20260503234428 | 58 | 36 | 6.0 | 10.0 | 0.00 | 0.00 | 0.00 | 37 | 1011.4 |
| 20260503233926 | 59 | 23 | 2.0 | 3.0 | 0.00 | 0.00 | 0.00 | 37 | 1011.4 |
| 20260503233423 | 59 | 18 | 5.0 | 8.0 | 0.00 | 0.00 | 0.00 | 37 | 1010.9 |
| 20260503232919 | 59 | 14 | 5.0 | 6.0 | 0.00 | 0.00 | 0.00 | 36 | 1011.4 |
| 20260503232416 | 59 | 63 | 6.0 | 11.0 | 0.00 | 0.00 | 0.00 | 36 | 1010.9 |
| 20260503231914 | 59 | 349 | 7.0 | 11.0 | 0.00 | 0.00 | 0.00 | 36 | 1011.4 |
| 20260503231411 | 59 | 42 | 5.0 | 7.0 | 0.00 | 0.00 | 0.00 | 36 | 1010.9 |
| 20260503230907 | 60 | 53 | 6.0 | 9.0 | 0.00 | 0.00 | 0.00 | 35 | 1011.4 |
| 20260503230404 | 60 | 11 | 6.0 | 10.0 | 0.00 | 0.00 | 0.00 | 35 | 1010.9 |
| 20260503225902 | 60 | 39 | 5.0 | 7.0 | 0.00 | 0.00 | 0.00 | 34 | 1011.4 |
| 20260503225357 | 60 | 354 | 9.0 | 11.0 | 0.00 | 0.00 | 0.00 | 34 | 1010.9 |
| 20260503224854 | 60 | 42 | 9.0 | 13.0 | 0.00 | 0.00 | 0.00 | 34 | 1010.9 |
| 20260503224351 | 60 | 332 | 7.0 | 9.0 | 0.00 | 0.00 | 0.00 | 34 | 1010.9 |
| 20260503223849 | 60 | 22 | 4.0 | 6.0 | 0.00 | 0.00 | 0.00 | 34 | 1010.9 |
| 20260503223347 | 60 | 34 | 5.0 | 7.0 | 0.00 | 0.00 | 0.00 | 33 | 1010.6 |
| 20260503222842 | 60 | 80 | 3.0 | 7.0 | 0.00 | 0.00 | 0.00 | 33 | 1010.9 |
| 20260503222341 | 60 | 32 | 6.0 | 8.0 | 0.00 | 0.00 | 0.00 | 33 | 1010.9 |
| 20260503221838 | 60 | 13 | 5.0 | 10.0 | 0.00 | 0.00 | 0.00 | 33 | 1010.9 |
| 20260503221337 | 60 | 347 | 7.0 | 9.0 | 0.00 | 0.00 | 0.00 | 33 | 1010.9 |
| 20260503220832 | 60 | 32 | 6.0 | 8.0 | 0.00 | 0.00 | 0.00 | 33 | 1010.9 |
| 20260503220329 | 60 | 332 | 5.0 | 7.0 | 0.00 | 0.00 | 0.00 | 33 | 1010.6 |
| 20260503215826 | 60 | 316 | 6.0 | 7.0 | 0.00 | 0.00 | 0.00 | 33 | 1010.6 |
| 20260503215323 | 60 | 333 | 5.0 | 7.0 | 0.00 | 0.00 | 0.00 | 34 | 1010.6 |
| 20260503214821 | 60 | 40 | 4.0 | 5.0 | 0.00 | 0.00 | 0.00 | 34 | 1010.6 |
| 20260503214318 | 60 | 349 | 4.0 | 6.0 | 0.00 | 0.00 | 0.00 | 33 | 1010.6 |
| 20260503213815 | 60 | 36 | 5.0 | 7.0 | 0.00 | 0.00 | 0.00 | 34 | 1010.6 |
| 20260503213313 | 60 | 81 | 4.0 | 8.0 | 0.00 | 0.00 | 0.00 | 34 | 1010.6 |
| 20260503212810 | 60 | 141 | 3.0 | 5.0 | 0.00 | 0.00 | 0.00 | 34 | 1010.6 |
| 20260503212308 | 60 | 342 | 5.0 | 7.0 | 0.00 | 0.00 | 0.00 | 34 | 1010.9 |
| 20260503211805 | 60 | 4 | 5.0 | 7.0 | 0.00 | 0.00 | 0.00 | 34 | 1010.6 |
| 20260503211301 | 61 | 46 | 4.0 | 7.0 | 0.00 | 0.00 | 0.00 | 34 | 1010.6 |
| 20260503210801 | 61 | 349 | 6.0 | 9.0 | 0.00 | 0.00 | 0.00 | 34 | 1010.6 |
| 20260503210259 | 61 | 22 | 6.0 | 8.0 | 0.00 | 0.00 | 0.00 | 34 | 1010.6 |
| 20260503205754 | 61 | 337 | 5.0 | 6.0 | 0.00 | 0.00 | 0.00 | 34 | 1010.6 |
| 20260503205251 | 61 | 346 | 3.0 | 5.0 | 0.00 | 0.00 | 0.00 | 34 | 1010.6 |
| 20260503204747 | 61 | 9 | 5.0 | 8.0 | 0.00 | 0.00 | 0.00 | 34 | 1010.6 |
| 20260503204245 | 61 | 316 | 4.0 | 6.0 | 0.00 | 0.00 | 0.00 | 34 | 1010.9 |
| 20260503203742 | 61 | 35 | 4.0 | 7.0 | 0.00 | 0.00 | 0.00 | 34 | 1010.6 |
| 20260503203240 | 61 | 19 | 5.0 | 7.0 | 0.00 | 0.00 | 0.00 | 34 | 1010.6 |
| 20260503202736 | 61 | 4 | 9.0 | 11.0 | 0.00 | 0.00 | 0.00 | 34 | 1010.6 |
| 20260503202234 | 61 | 61 | 3.0 | 5.0 | 0.00 | 0.00 | 0.00 | 34 | 1010.3 |
| 20260503201732 | 62 | 33 | 3.0 | 5.0 | 0.00 | 0.00 | 0.00 | 35 | 1010.6 |
| 20260503201229 | 62 | 42 | 5.0 | 10.0 | 0.00 | 0.00 | 0.00 | 35 | 1010.3 |
| 20260503200726 | 62 | 333 | 5.0 | 7.0 | 0.00 | 0.00 | 0.00 | 33 | 1010.6 |
| 20260503200222 | 62 | 27 | 5.0 | 7.0 | 0.00 | 0.00 | 0.00 | 32 | 1010.3 |
| 20260503195719 | 62 | 33 | 6.0 | 9.0 | 0.00 | 0.00 | 0.00 | 32 | 1010.3 |
| 20260503195216 | 62 | 346 | 6.0 | 10.0 | 0.00 | 0.00 | 0.00 | 32 | 1010.3 |
| 20260503194713 | 62 | 89 | 9.0 | 10.0 | 0.00 | 0.00 | 0.00 | 32 | 1010.3 |
| 20260503194209 | 63 | 328 | 6.0 | 9.0 | 0.00 | 0.00 | 0.00 | 32 | 1010.3 |
| 20260503193705 | 63 | 50 | 7.0 | 13.0 | 0.00 | 0.00 | 0.00 | 32 | 1010.3 |
| 20260503193201 | 63 | 348 | 5.0 | 6.0 | 0.00 | 0.00 | 0.00 | 32 | 1010.3 |
| 20260503192657 | 63 | 2 | 10.0 | 13.0 | 0.00 | 0.00 | 0.00 | 31 | 1010.6 |
| 20260503192152 | 63 | 12 | 3.0 | 5.0 | 0.00 | 0.00 | 0.00 | 32 | 1010.3 |
| 20260503191649 | 63 | 304 | 7.0 | 10.0 | 0.00 | 0.00 | 0.00 | 32 | 1010.3 |
| 20260503191147 | 63 | 35 | 11.0 | 16.0 | 0.00 | 0.00 | 0.00 | 32 | 1009.9 |
| 20260503190643 | 63 | 56 | 6.0 | 8.0 | 0.00 | 0.00 | 0.00 | 32 | 1009.9 |
| 20260503190140 | 63 | 309 | 6.0 | 8.0 | 0.00 | 0.00 | 0.00 | 32 | 1010.3 |
| 20260503185637 | 64 | 81 | 4.0 | 5.0 | 0.00 | 0.00 | 0.00 | 32 | 1010.3 |
| 20260503185132 | 64 | 136 | 6.0 | 8.0 | 0.00 | 0.00 | 0.00 | 32 | 1010.3 |
| 20260503184627 | 64 | 290 | 6.0 | 7.0 | 0.00 | 0.00 | 0.00 | 33 | 1010.3 |
| 20260503184124 | 64 | 329 | 4.0 | 8.0 | 0.00 | 0.00 | 0.00 | 33 | 1010.3 |
| 20260503183621 | 64 | 338 | 5.0 | 6.0 | 0.00 | 0.00 | 0.00 | 32 | 1010.3 |
| 20260503183118 | 64 | 343 | 6.0 | 8.0 | 0.00 | 0.00 | 0.00 | 32 | 1010.3 |
| 20260503182616 | 64 | 352 | 4.0 | 6.0 | 0.00 | 0.00 | 0.00 | 31 | 1010.3 |
| 20260503182114 | 64 | 44 | 4.0 | 7.0 | 0.00 | 0.00 | 0.00 | 31 | 1010.3 |
| 20260503181611 | 64 | 59 | 7.0 | 10.0 | 0.00 | 0.00 | 0.00 | 31 | 1010.3 |
| 20260503181108 | 64 | 307 | 5.0 | 6.0 | 0.00 | 0.00 | 0.00 | 31 | 1010.3 |
| 20260503180605 | 64 | 98 | 5.0 | 6.0 | 0.00 | 0.00 | 0.00 | 32 | 1010.3 |
| 20260503180103 | 64 | 179 | 8.0 | 13.0 | 0.00 | 0.00 | 0.00 | 31 | 1010.3 |
| 20260503175559 | 64 | 11 | 5.0 | 8.0 | 0.00 | 0.00 | 0.00 | 33 | 1010.3 |
| 20260503175056 | 64 | 2 | 5.0 | 7.0 | 0.00 | 0.00 | 0.00 | 32 | 1010.3 |
| 20260503174553 | 64 | 1 | 6.0 | 9.0 | 0.00 | 0.00 | 0.00 | 32 | 1010.3 |
| 20260503174050 | 64 | 58 | 6.0 | 14.0 | 0.00 | 0.00 | 0.00 | 32 | 1010.3 |
| 20260503173545 | 63 | 59 | 7.0 | 10.0 | 0.00 | 0.00 | 0.00 | 32 | 1010.3 |
| 20260503173041 | 63 | 31 | 6.0 | 10.0 | 0.00 | 0.00 | 0.00 | 32 | 1010.3 |
| 20260503172539 | 63 | 34 | 4.0 | 7.0 | 0.00 | 0.00 | 0.00 | 33 | 1010.3 |
| 20260503172036 | 63 | 359 | 2.0 | 3.0 | 0.00 | 0.00 | 0.00 | 34 | 1010.3 |
| 20260503171532 | 63 | 114 | 5.0 | 9.0 | 0.00 | 0.00 | 0.00 | 34 | 1010.3 |
| 20260503171030 | 63 | 348 | 4.0 | 6.0 | 0.00 | 0.00 | 0.00 | 35 | 1010.3 |
| 20260503170526 | 62 | 3 | 3.0 | 5.0 | 0.00 | 0.00 | 0.00 | 35 | 1010.3 |
| 20260503150918 | 58 | 76 | 5.0 | 8.0 | 0.00 | 0.00 | 0.00 | 41 | 1009.9 |
| 20260503150415 | 58 | 77 | 2.0 | 3.0 | 0.00 | 0.00 | 0.00 | 42 | 1009.9 |
| 20260503131308 | 51 | 74 | 1.0 | 2.0 | 0.00 | 0.00 | 0.00 | 48 | 1009.5 |
| 20260503130806 | 51 | 92 | 0.0 | 2.0 | 0.00 | 0.00 | 0.00 | 47 | 1009.5 |
| 20260503130303 | 51 | 107 | 0.0 | 0.0 | 0.00 | 0.00 | 0.00 | 47 | 1009.5 |
| 20260503110657 | 51 | 113 | 1.0 | 1.0 | 0.00 | 0.00 | 0.00 | 45 | 1009.5 |
| 20260503110154 | 51 | 117 | 1.0 | 1.0 | 0.00 | 0.00 | 0.00 | 45 | 1009.2 |
| 20260503100120 | 53 | 115 | 0.0 | 1.0 | 0.00 | 0.00 | 0.00 | 43 | 1009.9 |
| 20260503081510 | 54 | 9 | 3.0 | 3.0 | 0.00 | 0.00 | 0.00 | 40 | 1010.3 |
| 20260503081007 | 54 | 198 | 1.0 | 1.0 | 0.00 | 0.00 | 0.00 | 41 | 1010.3 |
| 20260503080503 | 55 | 112 | 0.0 | 1.0 | 0.00 | 0.00 | 0.00 | 41 | 1010.6 |
| 20260503072939 | 55 | 76 | 2.0 | 3.0 | 0.00 | 0.00 | 0.00 | 41 | 1010.6 |
| 20260503072437 | 55 | 87 | 2.0 | 2.0 | 0.00 | 0.00 | 0.00 | 41 | 1010.6 |
| 20260503071934 | 55 | 138 | 0.0 | 0.0 | 0.00 | 0.00 | 0.00 | 40 | 1010.3 |
| 20260503071431 | 56 | 123 | 0.0 | 0.0 | 0.00 | 0.00 | 0.00 | 40 | 1010.3 |
| 20260503070926 | 56 | 117 | 0.0 | 1.0 | 0.00 | 0.00 | 0.00 | 40 | 1010.3 |
| 20260503070424 | 56 | 87 | 2.0 | 6.0 | 0.00 | 0.00 | 0.00 | 40 | 1010.6 |
| 20260503054837 | 60 | 48 | 2.0 | 2.0 | 0.00 | 0.00 | 0.00 | 36 | 1009.9 |
| 20260503054333 | 60 | 94 | 3.0 | 5.0 | 0.00 | 0.00 | 0.00 | 35 | 1009.9 |
| 20260503053831 | 60 | 138 | 0.0 | 0.0 | 0.00 | 0.00 | 0.00 | 35 | 1009.9 |
| 20260503053330 | 60 | 144 | 0.0 | 0.0 | 0.00 | 0.00 | 0.00 | 35 | 1009.9 |
| 20260503052826 | 60 | 126 | 0.0 | 0.0 | 0.00 | 0.00 | 0.00 | 36 | 1009.9 |
| 20260503052323 | 60 | 136 | 0.0 | 0.0 | 0.00 | 0.00 | 0.00 | 36 | 1009.9 |
| 20260503051819 | 59 | 139 | 0.0 | 0.0 | 0.00 | 0.00 | 0.00 | 36 | 1009.9 |
| 20260503051315 | 59 | 128 | 0.0 | 1.0 | 0.00 | 0.00 | 0.00 | 35 | 1010.3 |
| 20260503050812 | 58 | 143 | 0.0 | 0.0 | 0.00 | 0.00 | 0.00 | 36 | 1009.9 |
| 20260503050308 | 57 | 116 | 0.0 | 0.0 | 0.00 | 0.00 | 0.00 | 35 | 1009.9 |
| 20260503045806 | 57 | 136 | 0.0 | 1.0 | 0.00 | 0.00 | 0.00 | 35 | 1010.3 |
| 20260503045305 | 57 | 160 | 0.0 | 0.0 | 0.00 | 0.00 | 0.00 | 39 | 1009.9 |
| 20260503044800 | 57 | 149 | 0.0 | 0.0 | 0.00 | 0.00 | 0.00 | 40 | 1009.9 |
| 20260503044257 | 58 | 152 | 0.0 | 0.0 | 0.00 | 0.00 | 0.00 | 41 | 1009.5 |
| 20260503043754 | 59 | 165 | 0.0 | 0.0 | 0.00 | 0.00 | 0.00 | 41 | 1009.5 |
| 20260503043251 | 59 | 163 | 0.0 | 1.0 | 0.00 | 0.00 | 0.00 | 39 | 1009.5 |
| 20260503042747 | 60 | 162 | 0.0 | 1.0 | 0.00 | 0.00 | 0.00 | 38 | 1009.5 |
| 20260503042244 | 60 | 157 | 1.0 | 1.0 | 0.00 | 0.00 | 0.00 | 39 | 1009.9 |
| 20260503041739 | 60 | 160 | 0.0 | 0.0 | 0.00 | 0.00 | 0.00 | 37 | 1009.9 |
| 20260503041238 | 60 | 145 | 0.0 | 0.0 | 0.00 | 0.00 | 0.00 | 36 | 1009.9 |
| 20260503040735 | 60 | 92 | 0.0 | 1.0 | 0.00 | 0.00 | 0.00 | 36 | 1009.5 |
| 20260503040233 | 61 | 140 | 0.0 | 0.0 | 0.00 | 0.00 | 0.00 | 35 | 1009.5 |
| 20260503035729 | 61 | 32 | 2.0 | 2.0 | 0.00 | 0.00 | 0.00 | 35 | 1009.5 |
| 20260503035227 | 61 | 144 | 0.0 | 0.0 | 0.00 | 0.00 | 0.00 | 34 | 1009.5 |
| 20260503034724 | 62 | 140 | 0.0 | 0.0 | 0.00 | 0.00 | 0.00 | 35 | 1009.5 |
| 20260503034221 | 62 | 155 | 0.0 | 0.0 | 0.00 | 0.00 | 0.00 | 35 | 1009.5 |
| 20260503033718 | 63 | 155 | 0.0 | 0.0 | 0.00 | 0.00 | 0.00 | 34 | 1009.2 |
| 20260503033215 | 63 | 157 | 0.0 | 0.0 | 0.00 | 0.00 | 0.00 | 33 | 1009.5 |
| 20260503032714 | 63 | 159 | 0.0 | 0.0 | 0.00 | 0.00 | 0.00 | 34 | 1009.5 |
| 20260503032212 | 64 | 161 | 0.0 | 0.0 | 0.00 | 0.00 | 0.00 | 33 | 1009.2 |
| 20260503031709 | 64 | 162 | 0.0 | 0.0 | 0.00 | 0.00 | 0.00 | 33 | 1009.5 |
| 20260503031208 | 64 | 160 | 0.0 | 0.0 | 0.00 | 0.00 | 0.00 | 32 | 1009.5 |
| 20260503030703 | 65 | 157 | 0.0 | 0.0 | 0.00 | 0.00 | 0.00 | 32 | 1009.5 |
| 20260503030159 | 65 | 156 | 0.0 | 0.0 | 0.00 | 0.00 | 0.00 | 32 | 1009.5 |
| 20260503025656 | 65 | 154 | 0.0 | 0.0 | 0.00 | 0.00 | 0.00 | 32 | 1009.5 |
| 20260503025154 | 66 | 147 | 0.0 | 0.0 | 0.00 | 0.00 | 0.00 | 32 | 1009.5 |
| 20260503024650 | 66 | 157 | 0.0 | 0.0 | 0.00 | 0.00 | 0.00 | 32 | 1009.5 |
| 20260503024148 | 66 | 159 | 0.0 | 0.0 | 0.00 | 0.00 | 0.00 | 31 | 1009.9 |